Estación de Trinidad
Ultimos registro cada 15 minutos 22
| N° | Estación | Fecha / Hora | Temperatura | Humedad | Lluvia | Velocidad | Dirección | Radiación | Presion |
| 22 | Trinidad | 06-05-2026 05:15 | 12,9 | 81 | 0 | 1,3 | 326 | 0 | 1013,7 |
| 21 | Trinidad | 06-05-2026 05:00 | 13,2 | 81 | 0 | 1,8 | 337 | 0 | 1013,9 |
| 20 | Trinidad | 06-05-2026 04:45 | 13,2 | 80 | 0 | 1,8 | 33 | 0 | 1013,9 |
| 19 | Trinidad | 06-05-2026 04:30 | 13,3 | 80 | 0 | 3,6 | 34 | 0 | 1014 |
| 18 | Trinidad | 06-05-2026 04:15 | 13,6 | 79 | 0 | 0,9 | 24 | 0 | 1014 |
| 17 | Trinidad | 06-05-2026 04:00 | 13,2 | 80 | 0 | 0,9 | 9 | 0 | 1014 |
| 16 | Trinidad | 06-05-2026 03:45 | 13,7 | 78 | 0 | 0,4 | 335 | 0 | 1014,2 |
| 15 | Trinidad | 06-05-2026 03:30 | 13,7 | 78 | 0 | 0,9 | 352 | 0 | 1014,4 |
| 14 | Trinidad | 06-05-2026 03:15 | 13,9 | 77 | 0 | 2,2 | 29 | 0 | 1014,5 |
| 13 | Trinidad | 06-05-2026 03:00 | 14,1 | 77 | 0 | 1,3 | 43 | 0 | 1014,3 |
| 12 | Trinidad | 06-05-2026 02:45 | 14 | 77 | 0 | 0,4 | 356 | 0 | 1014,5 |
| 11 | Trinidad | 06-05-2026 02:30 | 14,3 | 76 | 0 | 0,4 | 58 | 0 | 1014,7 |
| 10 | Trinidad | 06-05-2026 02:15 | 14,6 | 75 | 0 | 0,4 | 33 | 0 | 1014,5 |
| 9 | Trinidad | 06-05-2026 02:00 | 15 | 74 | 0 | 0,4 | 8 | 0 | 1014,8 |
| 8 | Trinidad | 06-05-2026 01:45 | 14,8 | 75 | 0 | 0,9 | 36 | 0 | 1015 |
| 7 | Trinidad | 06-05-2026 01:30 | 14,9 | 76 | 0 | 0,4 | 50 | 0 | 1015 |
| 6 | Trinidad | 06-05-2026 01:15 | 14,9 | 76 | 0 | 2,2 | 13 | 0 | 1014,8 |
| 5 | Trinidad | 06-05-2026 01:00 | 14,9 | 76 | 0 | 0,4 | 26 | 0 | 1014,8 |
| 4 | Trinidad | 06-05-2026 00:45 | 14,7 | 76 | 0 | 1,3 | 50 | 0 | 1014,8 |
| 3 | Trinidad | 06-05-2026 00:30 | 14,8 | 77 | 0 | 0 | 18 | 0 | 1014,9 |
| 2 | Trinidad | 06-05-2026 00:15 | 14,8 | 77 | 0 | 0,4 | 1 | 0 | 1015 |
| 1 | Trinidad | 06-05-2026 00:00 | 14,7 | 78 | 0 | 0,4 | 360 | 0 | 1015,1 |